Location: Marcé
(47.5801°N, 0.3280°W)
Time: 16:33:30
(UTC+01:00)

SR - Pass Details

Date: 08 December 2021
Orbit: 582 x 872 km, 66.7° (Epoch: 22 January)

Event Time Altitude Azimuth Distance (km) Brightness Sun altitude
Rises 07:35:27 0° 327° (NNW) 2,821 - -9.9°
Exits shadow 07:37:07 - 330° (NNW) 2,149 ? -9.6°
Reaches altitude 10° 07:37:40 10° 331° (NNW) 1,930 ? -9.5°
Maximum altitude 07:41:57 62° 53° (NE) 691 ? -8.9°
Drops below altitude 10° 07:46:26 10° 134° (SE) 2,025 ? -8.2°
Sets 07:48:49 0° 138° (SE) 2,973 ? -7.8°
